Temperature
15 14 14 14 13 13 13 13 13 13 13 13 13 13 13 13 13 14 14 14 14 14 15 15 15 16 16 16 16 17 16 17 17 17 17 17 17 17 17 17 17 17 17
15 14 14 14 13 13 13 13 12 12 12 12 12 12 12 13 13 13 13 13 14 14 14 15 15 15 15 16 16 16 16 16 16 16 16 16 16 17 17 17 17 17 17
14 14 14 13 13 13 13 12 12 12 12 12 12 12 12 13 13 13 13 13 13 14 14 14 14 15 15 15 15 15 16 16 16 16 16 16 16 16 17 17 17 17 17
14 14 14 13 13 13 13 12 12 12 12 12 12 12 12 12 12 12 13 13 13 13 13 14 14 14 15 15 15 15 15 15 15 16 16 16 16 16 16 17 17 17 17
14 14 14 13 13 13 13 12 12 12 12 12 12 12 12 12 12 12 12 13 13 13 13 13 14 14 14 14 15 15 15 15 15 15 15 15 15 16 16 16 17 17 17
14 14 14 13 13 13 13 12 12 12 12 12 12 12 12 12 12 12 12 12 12 13 13 13 13 14 14 14 14 15 15 15 15 15 15 15 15 15 16 16 16 16 17
14 14 14 13 13 13 12 12 12 12 12 12 12 12 12 12 12 12 12 12 12 12 13 13 13 13 13 14 14 14 14 15 15 15 15 15 15 15 15 15 15 16 16
14 14 14 13 13 13 12 12 12 12 12 12 12 12 12 12 12 12 12 12 12 12 12 13 13 13 13 13 14 14 14 14 14 15 15 15 15 15 15 15 15 15 15
15 14 14 13 13 13 12 12 12 12 12 11 11 11 11 11 11 11 11 11 12 12 12 12 12 13 13 13 13 14 14 14 14 14 14 14 14 14 14 15 14 15 15
15 14 14 14 13 13 13 12 12 12 11 11 11 11 11 11 11 11 11 11 11 11 12 12 12 12 13 13 13 13 13 14 14 14 14 14 14 14 14 14 14 14 14
15 15 14 14 13 13 13 12 12 12 11 11 11 11 11 11 11 11 11 11 11 11 12 12 12 12 12 12 13 13 13 13 13 13 14 14 14 14 14 14 14 14 14
15 15 14 14 13 13 13 12 12 12 11 11 11 11 11 11 11 11 11 11 11 11 11 12 12 12 12 12 12 12 13 13 13 13 13 13 13 14 14 14 14 14 14
15 15 14 14 14 13 13 12 12 12 11 11 11 11 11 11 11 11 11 11 11 11 11 12 12 12 12 12 12 12 12 13 13 13 13 13 13 13 13 13 13 13 13
15 15 15 14 14 13 13 13 12 12 12 11 11 11 11 11 11 11 11 11 11 11 11 11 11 12 12 12 12 12 12 12 12 13 13 13 13 13 13 13 13 13 13
15 15 15 14 14 14 13 13 12 12 12 11 11 11 11 11 11 11 11 11 11 11 11 11 11 11 11 11 12 12 12 12 12 12 13 13 13 13 13 13 13 13 13
16 15 15 15 14 14 13 13 13 12 12 11 11 11 11 11 11 11 11 11 11 11 11 11 11 11 11 11 11 11 12 12 12 12 12 13 13 13 13 13 13 13 13
16 16 15 15 14 14 14 13 13 12 12 12 11 11 11 11 11 11 11 11 11 11 11 11 11 11 11 11 11 11 11 12 12 12 12 12 12 13 13 13 13 13 13
17 16 15 15 15 14 14 13 13 12 12 12 11 11 11 11 11 11 11 11 11 11 11 11 11 11 11 11 11 11 11 12 12 12 12 12 12 12 12 12 12 12 12
17 16 16 15 15 14 14 13 13 13 12 12 12 11 11 11 11 11 11 11 11 11 11 11 11 11 11 11 11 11 11 12 12 12 12 12 12 12 12 12 12 12 12
17 16 16 15 15 15 14 14 13 13 12 12 12 11 11 11 11 11 11 11 11 11 11 11 11 11 11 11 11 11 11 11 11 11 11 11 11 11 11 12 12 12 12
17 17 16 16 15 15 14 14 14 13 13 12 12 12 11 11 11 11 11 11 11 11 11 11 11 11 11 11 11 11 11 11 11 11 11 11 11 11 11 11 12 12 12
18 17 16 16 16 15 15 14 14 14 13 13 12 12 11 11 11 11 11 11 11 11 11 11 11 11 11 11 11 11 11 11 11 11 11 11 11 11 11 11 11 11 11
18 17 17 16 16 16 15 15 14 14 13 13 13 12 12 11 11 11 11 11 11 11 11 11 11 11 11 11 11 11 11 11 11 11 11 11 11 11 11 11 11 11 11
18 18 17 17 17 16 16 15 15 14 14 13 13 13 12 12 11 11 11 11 11 11 11 11 11 11 11 11 11 11 11 11 11 11 11 11 11 11 11 11 11 11 11
18 18 18 17 17 17 16 16 15 14 14 14 13 13 12 12 12 12 11 11 11 11 11 11 11 11 11 11 11 11 11 11 11 11 11 11 11 11 11 11 11 11 11
18 18 18 18 17 17 17 16 16 15 15 14 14 13 13 12 12 12 12 11 11 11 11 11 11 11 11 11 11 10 10 10 10 10 10 11 10 10 10 10 10 10 10
Wind_Speed
5 6 6 6 6 6 7 7 8 8 7 5 5 5 5 5 5 4 5 6 5 5 3 3 3 3 4 5 5 4 4 3 3 2 0 1 0 2 3 3 4 5 8
6 6 7 6 6 7 7 7 8 8 7 5 5 4 5 5 4 4 5 6 5 5 3 3 3 3 3 4 4 4 3 3 4 3 2 1 1 2 2 3 4 5 5
6 7 7 7 7 8 8 8 8 9 8 7 5 5 4 4 4 4 5 5 6 5 4 3 3 3 3 4 5 5 5 4 4 3 4 4 4 2 1 3 4 4 4
6 6 7 8 8 8 8 7 8 8 8 7 6 6 4 4 5 5 5 6 5 5 4 3 2 2 3 4 4 5 5 5 4 3 3 2 3 3 2 1 2 3 4
6 7 7 7 7 7 7 7 8 7 7 7 6 6 5 4 5 5 6 5 5 4 4 3 2 2 2 3 4 4 5 5 5 4 3 2 1 1 2 2 2 1 2
6 7 7 6 6 7 7 7 8 8 8 8 7 6 7 7 7 7 6 5 4 4 4 3 2 2 2 3 3 4 5 5 5 5 4 4 4 4 3 3 2 2 2
6 7 7 7 7 8 8 7 8 8 8 8 8 7 7 6 6 6 6 5 4 4 5 4 3 2 2 3 2 3 4 5 5 6 5 4 4 3 3 3 3 2 1
6 6 7 7 7 8 7 7 7 7 8 8 8 7 7 5 5 5 5 5 4 4 5 4 3 3 2 2 2 2 3 3 4 6 6 4 4 4 3 4 4 3 1
7 6 6 6 6 7 7 6 7 7 7 8 7 7 7 7 7 6 5 5 5 5 6 5 4 3 3 2 1 1 2 2 3 4 5 4 4 4 4 4 4 5 4
6 6 6 5 5 5 5 5 5 6 6 7 7 6 7 7 7 6 7 7 6 6 6 6 5 4 3 2 1 1 1 2 2 2 3 3 3 3 4 4 4 4 4
7 6 5 5 5 5 5 5 6 5 6 7 7 7 7 7 7 7 7 7 6 7 6 6 5 5 4 3 1 1 1 2 2 2 3 3 3 3 4 4 4 3 3
6 5 5 5 4 5 5 5 5 5 5 6 6 7 7 7 8 8 8 8 7 7 7 6 5 5 4 3 1 1 1 1 2 2 2 3 3 3 3 4 5 4 4
5 4 4 5 5 4 4 4 4 5 5 5 6 7 7 8 8 8 8 8 7 7 7 7 6 5 4 3 2 1 0 1 2 3 3 3 3 4 3 5 5 4 4
6 5 5 5 5 4 4 4 4 4 4 4 5 6 7 7 7 7 8 8 7 7 8 7 6 6 5 4 3 2 2 1 1 1 2 2 3 4 4 4 5 5 5
7 7 6 5 5 4 4 3 3 3 3 3 4 5 6 6 7 7 8 8 8 8 7 8 8 7 5 5 5 3 2 2 2 2 1 1 1 3 3 4 5 6 5
8 8 7 6 5 5 4 3 3 2 2 3 4 5 6 6 7 7 7 8 8 8 8 8 8 8 7 8 8 6 4 3 3 3 2 2 1 1 2 3 5 6 7
9 8 7 6 6 5 4 3 2 1 1 2 4 4 5 6 6 6 7 8 8 8 8 8 8 8 8 10 10 10 6 4 4 3 3 3 3 3 3 4 5 3 4
9 8 7 6 5 4 3 2 1 0 1 2 3 4 4 5 6 6 6 6 5 6 6 8 8 8 9 12 11 11 7 6 5 5 4 3 3 3 4 4 5 4 3
9 8 7 6 5 5 4 3 1 1 1 2 3 3 3 4 5 6 5 5 5 5 6 6 8 8 9 12 11 9 5 6 6 6 5 4 4 5 6 5 5 5 5
7 7 6 5 5 5 5 4 3 2 3 4 3 3 2 2 3 4 4 3 3 4 5 6 7 7 8 12 12 10 5 5 5 6 6 7 6 7 6 5 5 6 4
8 7 6 6 6 6 6 5 5 6 6 4 2 2 2 2 2 3 3 3 3 4 5 5 6 6 8 10 12 10 5 4 4 5 5 5 8 8 8 7 5 6 6
7 7 7 7 6 7 7 7 7 7 4 3 2 2 2 2 1 1 2 3 3 4 4 5 5 5 6 8 9 11 9 6 4 4 3 4 7 9 9 7 8 9 8
7 7 7 7 6 7 8 9 8 6 5 4 4 3 3 2 1 1 1 2 2 2 3 3 4 4 5 6 9 10 10 9 4 3 6 7 9 9 7 9 9 7 5
7 6 7 8 8 8 9 10 7 6 6 6 5 4 3 3 2 1 1 1 1 1 2 2 3 3 4 4 5 5 5 6 5 4 6 8 9 8 7 7 6 5 4
6 6 8 9 10 9 9 9 8 7 7 7 6 5 4 4 3 3 3 3 4 4 3 2 2 1 3 4 4 3 3 2 2 2 3 4 4 4 4 4 4 4 4
6 7 8 10 10 9 9 9 8 9 8 7 7 5 5 4 4 3 4 5 6 6 7 7 5 4 5 5 3 3 4 3 2 3 2 2 2 2 2 2 2 3 3
Wind_Direction
300 312 316 320 322 326 331 330 329 329 334 332 330 324 319 315 313 305 308 308 302 293 274 262 248 231 224 222 210 192 190 197 163 143 120 348 302 228 223 209 202 206 208
308 315 318 323 325 323 326 326 326 325 330 324 309 291 290 292 291 300 318 319 315 307 286 256 247 234 228 219 206 186 174 187 170 156 136 199 293 266 228 200 211 211 196
292 308 316 316 324 324 324 326 323 325 326 327 321 318 313 309 322 326 324 320 320 312 302 271 249 236 220 220 212 198 184 190 192 180 161 167 209 225 255 217 213 204 198
292 303 310 315 319 317 321 323 324 326 327 333 337 335 330 318 307 309 308 314 320 319 316 307 281 256 237 227 220 207 197 185 190 191 192 170 160 169 197 250 209 196 202
288 298 302 306 312 317 325 326 329 329 333 340 342 338 330 312 308 312 318 323 324 325 326 321 305 280 252 238 227 211 197 192 188 181 172 168 172 173 163 202 210 206 211
289 298 305 315 317 323 331 334 337 333 338 344 346 347 341 335 337 335 333 330 326 329 334 325 316 295 270 250 235 216 203 202 194 185 178 172 177 186 175 186 197 208 219
283 296 307 316 319 325 332 337 340 335 340 346 348 347 344 341 339 334 334 336 334 331 329 330 319 299 280 264 244 218 213 203 199 195 193 194 198 173 169 168 173 181 210
276 284 293 301 308 317 328 335 336 334 340 346 345 346 348 346 340 335 333 331 326 319 322 326 320 307 293 276 246 225 217 204 202 201 193 195 198 187 184 174 165 164 195
276 283 294 303 307 313 320 328 333 335 340 345 345 349 351 351 346 341 340 337 335 336 343 341 339 329 316 295 252 231 224 207 203 200 194 194 194 188 188 182 178 171 183
277 286 293 300 307 308 316 334 338 335 339 346 350 352 347 348 347 351 352 348 346 346 345 344 343 339 338 330 287 240 234 203 202 193 185 190 194 187 185 187 184 186 180
267 275 285 294 304 316 330 338 341 343 346 347 347 351 349 350 352 355 350 347 347 348 346 343 342 340 336 330 307 254 245 210 200 195 186 193 189 190 188 183 182 188 177
259 269 282 298 310 319 326 330 332 337 339 341 347 350 349 353 358 356 351 350 349 348 348 347 346 345 341 336 336 283 228 207 199 196 186 197 196 195 192 187 188 187 176
263 275 290 295 296 304 313 317 323 326 336 346 351 353 353 354 354 351 348 351 352 354 356 358 359 355 351 353 353 352 49 235 207 190 188 196 190 202 203 192 188 185 180
255 261 273 281 283 288 298 308 317 324 338 350 353 353 349 347 346 346 350 353 356 3 1 0 1 1 2 6 10 24 46 33 24 177 195 204 201 205 200 195 192 184 176
249 248 252 266 275 280 291 298 308 324 340 352 350 344 341 345 351 355 355 358 6 9 3 7 7 5 6 13 17 30 50 46 39 33 13 251 222 215 199 189 185 179 172
241 243 246 255 261 260 266 277 296 312 339 346 338 339 347 352 356 356 359 5 9 9 13 12 10 10 11 19 35 47 48 49 41 22 4 8 44 88 138 156 164 172 171
232 233 236 241 248 247 237 239 266 300 345 334 335 344 348 351 351 357 7 10 9 12 15 13 13 8 4 28 43 46 48 43 33 29 28 40 48 62 80 88 102 115 141
225 227 227 234 238 228 214 208 214 257 318 324 329 338 346 345 348 1 7 5 5 10 12 11 10 13 18 31 41 43 44 46 37 32 37 50 42 68 90 91 82 73 74
214 216 216 217 218 212 197 181 202 244 289 298 306 318 334 342 350 355 354 357 7 12 13 10 13 14 11 24 34 38 37 41 33 28 34 47 54 73 90 97 95 84 67
208 210 207 201 209 208 177 178 211 234 256 263 275 296 314 330 338 339 341 349 3 7 10 16 14 13 10 16 27 33 40 41 33 28 28 38 51 67 78 90 101 94 78
206 200 194 203 214 190 172 194 217 235 243 249 266 293 304 302 310 334 345 351 4 16 18 13 9 12 9 12 22 32 40 39 37 33 22 24 47 63 68 71 86 98 99
204 195 197 216 212 182 179 205 227 235 230 223 247 275 292 306 323 343 345 359 12 19 12 9 3 3 2 8 17 30 37 41 51 35 15 27 56 65 67 73 83 90 92
208 199 201 217 215 194 190 210 230 217 205 212 234 254 273 287 302 307 329 346 4 12 0 4 358 347 351 360 16 24 29 35 47 38 41 52 60 64 67 70 74 78 83
213 203 199 214 225 212 207 218 222 197 197 215 230 236 244 260 266 262 253 257 281 309 328 338 336 336 342 349 356 1 10 22 35 39 46 54 57 59 61 60 57 58 77
214 200 206 219 228 218 217 220 210 191 202 217 225 227 228 235 243 246 238 234 236 218 223 241 247 281 316 309 327 350 352 355 10 47 47 42 43 46 46 50 54 56 69
215 212 219 227 233 222 224 222 203 192 199 214 222 221 222 225 227 241 270 252 240 251 239 226 216 231 246 280 317 345 352 4 65 78 66 56 55 60 60 70 57 55 71
Height
1557 1554 1552 1549 1546 1543 1539 1535 1532 1528 1524 1521 1518 1515 1512 1511 1509 1507 1506 1505 1505 1505 1506 1506 1507 1509 1510 1512 1514 1515 1517 1519 1522 1524 1526 1528 1530 1532 1535 1537 1539 1542 1544
1555 1553 1551 1548 1545 1541 1538 1534 1531 1527 1523 1520 1517 1514 1511 1508 1506 1504 1503 1502 1502 1502 1502 1503 1503 1504 1506 1507 1509 1511 1512 1515 1517 1520 1522 1524 1527 1528 1531 1533 1536 1538 1540
1554 1552 1550 1547 1544 1540 1537 1533 1530 1526 1522 1519 1516 1513 1510 1507 1504 1502 1501 1500 1499 1499 1499 1499 1499 1500 1502 1503 1504 1506 1508 1510 1513 1515 1518 1520 1521 1524 1526 1528 1531 1534 1537
1553 1551 1549 1546 1543 1540 1536 1533 1529 1526 1522 1518 1515 1511 1508 1505 1503 1501 1499 1498 1497 1496 1495 1495 1496 1497 1498 1499 1500 1502 1504 1506 1508 1511 1513 1516 1518 1520 1521 1524 1527 1530 1532
1552 1550 1548 1546 1543 1540 1536 1532 1529 1525 1522 1518 1515 1511 1508 1505 1503 1500 1498 1496 1495 1494 1493 1493 1492 1493 1494 1495 1496 1498 1499 1501 1503 1506 1508 1511 1514 1516 1518 1519 1522 1525 1528
1551 1550 1548 1545 1542 1539 1536 1532 1528 1525 1522 1518 1514 1511 1508 1505 1502 1499 1497 1495 1493 1492 1491 1490 1490 1490 1491 1492 1493 1494 1495 1497 1499 1502 1504 1506 1509 1512 1514 1516 1518 1520 1524
1550 1548 1547 1544 1541 1538 1535 1532 1528 1525 1521 1518 1515 1511 1508 1505 1502 1499 1496 1494 1492 1490 1489 1489 1488 1488 1488 1489 1490 1491 1492 1493 1495 1497 1500 1502 1505 1508 1510 1513 1515 1517 1519
1549 1547 1546 1544 1541 1538 1535 1532 1528 1525 1521 1518 1515 1512 1508 1505 1502 1499 1496 1494 1491 1490 1488 1487 1486 1486 1486 1486 1487 1488 1489 1490 1492 1494 1496 1498 1501 1503 1506 1508 1511 1513 1516
1547 1546 1545 1543 1540 1538 1535 1532 1528 1525 1522 1519 1515 1512 1508 1505 1502 1499 1496 1494 1491 1489 1487 1486 1485 1484 1484 1484 1484 1485 1486 1487 1489 1491 1492 1494 1497 1499 1501 1504 1507 1511 1512
1546 1545 1544 1542 1540 1538 1535 1532 1529 1526 1522 1519 1516 1512 1509 1506 1503 1500 1497 1494 1491 1489 1487 1485 1484 1483 1482 1481 1481 1482 1483 1485 1486 1488 1490 1491 1493 1496 1498 1500 1503 1505 1508
1545 1544 1543 1541 1539 1537 1535 1532 1529 1526 1523 1520 1516 1513 1509 1506 1503 1500 1497 1495 1492 1489 1487 1485 1483 1482 1480 1480 1480 1480 1481 1482 1484 1485 1487 1489 1491 1492 1494 1497 1499 1501 1504
1543 1543 1542 1540 1539 1537 1535 1532 1529 1526 1523 1520 1517 1513 1510 1507 1504 1501 1498 1495 1492 1490 1487 1485 1483 1481 1480 1479 1478 1479 1479 1480 1482 1483 1485 1486 1488 1490 1491 1494 1496 1498 1500
1541 1541 1540 1539 1538 1536 1534 1532 1529 1527 1524 1521 1518 1514 1511 1508 1505 1502 1499 1496 1493 1490 1487 1485 1483 1481 1480 1479 1478 1478 1478 1479 1480 1481 1483 1484 1486 1487 1488 1490 1492 1494 1497
1540 1540 1539 1538 1537 1535 1534 1532 1529 1527 1524 1521 1518 1515 1512 1509 1506 1503 1500 1496 1493 1491 1488 1486 1484 1482 1480 1479 1478 1478 1477 1478 1479 1480 1481 1482 1483 1484 1486 1487 1489 1491 1493
1537 1538 1537 1537 1536 1535 1533 1531 1529 1527 1524 1522 1519 1516 1514 1511 1508 1505 1501 1498 1495 1492 1490 1487 1485 1483 1481 1480 1479 1478 1478 1478 1478 1479 1480 1481 1482 1483 1484 1485 1487 1489 1490
1535 1536 1536 1535 1535 1534 1532 1531 1529 1527 1525 1522 1520 1517 1515 1512 1509 1506 1504 1501 1498 1495 1493 1490 1487 1485 1483 1481 1480 1479 1479 1479 1479 1479 1479 1480 1481 1482 1483 1484 1485 1487 1488
1532 1533 1534 1534 1533 1533 1532 1530 1528 1527 1525 1523 1520 1518 1516 1513 1511 1508 1506 1503 1501 1498 1495 1492 1490 1487 1485 1483 1482 1481 1480 1480 1479 1479 1479 1480 1480 1481 1482 1483 1484 1485 1487
1530 1531 1532 1532 1532 1532 1531 1529 1528 1526 1524 1523 1521 1519 1517 1515 1513 1510 1508 1506 1503 1501 1498 1495 1492 1489 1487 1486 1484 1483 1482 1481 1481 1480 1480 1481 1481 1481 1482 1483 1484 1485 1486
1528 1529 1530 1530 1530 1530 1530 1529 1527 1526 1524 1523 1521 1519 1517 1516 1514 1512 1510 1508 1506 1503 1500 1498 1495 1492 1490 1489 1487 1486 1485 1483 1483 1482 1482 1482 1482 1482 1483 1483 1484 1485 1486
1525 1527 1528 1528 1529 1529 1528 1527 1526 1525 1524 1523 1521 1520 1518 1516 1515 1513 1511 1509 1507 1505 1503 1500 1498 1496 1493 1492 1490 1489 1487 1486 1485 1485 1485 1485 1485 1485 1485 1485 1485 1486 1487
1523 1525 1526 1526 1527 1527 1527 1526 1526 1525 1524 1523 1521 1520 1518 1517 1515 1514 1512 1510 1508 1506 1504 1503 1501 1499 1496 1495 1493 1492 1490 1489 1489 1488 1488 1488 1488 1488 1487 1487 1488 1488 1489
1521 1522 1523 1524 1525 1525 1525 1525 1524 1524 1523 1522 1521 1520 1519 1517 1516 1514 1513 1511 1509 1508 1506 1504 1502 1501 1499 1497 1496 1495 1493 1492 1492 1491 1491 1491 1490 1490 1490 1490 1491 1491 1492
1519 1520 1521 1522 1523 1523 1523 1523 1523 1523 1522 1521 1520 1519 1518 1517 1516 1514 1513 1512 1510 1509 1507 1505 1504 1502 1500 1499 1498 1497 1496 1495 1494 1494 1494 1493 1493 1493 1493 1493 1494 1494 1495
1517 1518 1518 1519 1520 1520 1521 1521 1521 1521 1520 1520 1519 1518 1517 1516 1515 1514 1513 1512 1510 1509 1508 1506 1505 1503 1502 1501 1499 1498 1497 1497 1496 1496 1496 1496 1496 1496 1496 1496 1496 1496 1497
1514 1515 1515 1516 1516 1517 1518 1518 1518 1518 1518 1517 1517 1516 1516 1515 1514 1513 1512 1511 1510 1509 1508 1507 1505 1504 1503 1502 1500 1500 1499 1498 1498 1497 1497 1497 1497 1497 1497 1497 1498 1498 1499
1511 1511 1512 1512 1513 1514 1514 1515 1515 1515 1515 1514 1514 1514 1513 1513 1512 1511 1510 1509 1509 1508 1507 1506 1505 1504 1503 1502 1501 1500 1499 1499 1499 1499 1498 1498 1498 1498 1498 1499 1499 1499 1500